Regional Weather Roundup
Issued by NWS Albany, NY

Home | Current Version | Previous Version | Text Only | Print | Product List | Glossary On
Versions: 1 2 3 4 5 6 7 8 9 10 11 12 13 14 15 16 17 18 19 20 21 22 23 24 25 26 27
000
ASUS41 KALY 221210
RWRALY

NEW YORK STATE HOURLY WEATHER ROUNDUP
NATIONAL WEATHER SERVICE ALBANY NY
800 AM EDT TUE AUG 22 2017

NOTE: "FAIR" INDICATES FEW OR NO CLOUDS BELOW 12,000 FEET WITH NO
SIGNIFICANT WEATHER AND/OR NO OBSTRUCTIONS TO VISIBILITY.

NYZ032-033-038>043-046>054-057>066-NYZ062>081-082-084-221300-
EAST


CITY           SKY/WX    TMP DP  RH WIND       PRES   REMARKS
ALBANY         MOSUNNY   73  68  84 S9        29.98F
GLENS FALLS    CLOUDY    70  68  93 SW9       29.97F FOG
POUGHKEEPSIE   SUNNY     73  69  87 CALM      30.01S
NEWBURGH       SUNNY     72  72 100 CALM      30.04S FOG
MONTGOMERY     SUNNY     72  70  93 W5        30.02S FOG
WHITE PLAINS   SUNNY     74  71  91 SE3       30.03F FOG
ISLIP          PTSUNNY   77  74  90 SW7       30.03F
NEW YORK CITY  PTSUNNY   77  73  87 SW6       30.02S
CENTRAL PARK   PTSUNNY   76  72  87 SW5       30.05F
$$

NYZ005>009-017-018-044>046-055-056-221300-
CENTRAL


CITY           SKY/WX    TMP DP  RH WIND       PRES   REMARKS
FULTON         SUNNY     72  67  84 SE3       29.89F
SYRACUSE       PTSUNNY   75  69  81 S12       29.89F
ROME           CLOUDY    69  68  96 SE8       29.93F
ELMIRA         CLOUDY    66  53  63 E3        29.96F
BINGHAMTON     MOSUNNY   68  67  96 S8        30.01F FOG
MONTICELLO     LGT RAIN  66  65  96 S3        30.07S VSB 1/4
$$

NYZ026>034-041>043-087-221300-
NORTH


CITY           SKY/WX    TMP DP  RH WIND       PRES   REMARKS
WATERTOWN      CLOUDY    72  69  90 S8        29.85F
FORT DRUM      NOT AVBL
OGDENSBURG     FAIR      70  67  91 S5        29.84F
MASSENA        PTSUNNY   73  68  84 S10       29.86F
SARANAC LAKE   SUNNY     63  63 100 CALM      29.96F
PLATTSBURGH    SUNNY     69  63  81 S3        29.92S
$$

NYZ001>004-010>016-019>021-085-221300-
WEST


CITY           SKY/WX    TMP DP  RH WIND       PRES   REMARKS
NIAGARA FALLS  SUNNY     78  69  73 SW16      29.84F
BUFFALO        PTSUNNY   77  68  73 SW17      29.86F
DUNKIRK        SUNNY     76  68  76 S16       29.88F
JAMESTOWN      SUNNY     70  68  93 S9        29.97F
WELLSVILLE     CLOUDY    72  67  84 SW8       30.02F
ROCHESTER      PTSUNNY   77  69  76 SW13      29.87F
PENN YAN       CLOUDY    73  67  81 S13G20    29.94F
$$

             KEY
       WCI = WIND CHILL INDEX
       VSB = VISIBILITY
       HX  = HEAT INDEX
$$




USA.gov is the U.S. government's official web portal to all federal, state and local government web resources and services.